TimeCDT,TemperatureF,Dew PointF,Humidity,Sea Level PressureIn,VisibilityMPH,Wind Direction,Wind SpeedMPH,Gust SpeedMPH,PrecipitationIn,Events,Conditions,WindDirDegrees,DateUTC
12:53 AM,57.9,55.0,90,29.96,8.0,West,5.8,-,N/A,,Clear,280,2013-05-10 05:53:00
1:53 AM,57.9,54.0,87,29.96,7.0,West,5.8,-,N/A,,Partly Cloudy,270,2013-05-10 06:53:00
2:53 AM,57.0,54.0,89,29.95,7.0,NW,6.9,-,N/A,,Mostly Cloudy,320,2013-05-10 07:53:00
3:21 AM,57.9,54.0,87,29.97,7.0,NNW,6.9,-,N/A,,Scattered Clouds,330,2013-05-10 08:21:00
3:53 AM,57.9,54.0,87,29.96,7.0,WNW,3.5,-,N/A,,Mostly Cloudy,290,2013-05-10 08:53:00
4:53 AM,57.9,54.0,87,29.97,7.0,NNW,6.9,-,N/A,,Overcast,340,2013-05-10 09:53:00
5:53 AM,55.9,52.0,87,29.97,8.0,NW,6.9,-,N/A,,Mostly Cloudy,320,2013-05-10 10:53:00
6:18 AM,57.0,53.1,87,29.99,8.0,NNW,11.5,-,N/A,,Overcast,340,2013-05-10 11:18:00
6:53 AM,55.9,51.1,84,29.99,8.0,North,12.7,20.7,N/A,,Overcast,360,2013-05-10 11:53:00
7:53 AM,55.4,48.2,77,30.02,10.0,North,17.3,-,N/A,,Overcast,360,2013-05-10 12:53:00
8:53 AM,55.0,48.0,77,30.02,10.0,North,16.1,23.0,N/A,,Overcast,360,2013-05-10 13:53:00
9:53 AM,57.0,50.0,77,30.04,10.0,North,9.2,-,N/A,,Overcast,350,2013-05-10 14:53:00
10:53 AM,57.9,50.0,75,30.07,10.0,North,11.5,-,N/A,,Overcast,360,2013-05-10 15:53:00
11:53 AM,59.0,50.0,72,30.08,10.0,North,10.4,-,N/A,,Overcast,350,2013-05-10 16:53:00
12:53 PM,62.1,51.1,67,30.07,10.0,North,9.2,-,N/A,,Overcast,360,2013-05-10 17:53:00
1:53 PM,63.0,52.0,67,30.06,10.0,NNE,8.1,-,N/A,,Overcast,20,2013-05-10 18:53:00
2:16 PM,66.0,53.1,63,30.06,10.0,North,10.4,18.4,N/A,,Mostly Cloudy,350,2013-05-10 19:16:00
2:53 PM,66.9,52.0,59,30.04,10.0,NW,10.4,-,N/A,,Mostly Cloudy,310,2013-05-10 19:53:00
3:53 PM,68.0,51.1,55,30.03,10.0,North,12.7,-,N/A,,Scattered Clouds,360,2013-05-10 20:53:00
4:53 PM,66.9,48.9,52,30.02,10.0,North,11.5,-,N/A,,Scattered Clouds,360,2013-05-10 21:53:00
5:53 PM,69.1,48.9,49,30.02,10.0,North,9.2,-,N/A,,Overcast,360,2013-05-10 22:53:00
6:53 PM,68.0,46.9,47,30.02,10.0,NNW,8.1,-,N/A,,Scattered Clouds,340,2013-05-10 23:53:00
7:53 PM,64.9,46.9,52,30.02,10.0,NW,5.8,-,N/A,,Clear,320,2013-05-11 00:53:00
8:53 PM,61.0,46.9,60,30.03,10.0,NW,3.5,-,N/A,,Clear,310,2013-05-11 01:53:00
9:53 PM,57.0,48.0,72,30.05,10.0,Calm,Calm,-,N/A,,Clear,0,2013-05-11 02:53:00
10:53 PM,54.0,48.0,80,30.06,10.0,Calm,Calm,-,N/A,,Clear,0,2013-05-11 03:53:00
11:53 PM,53.1,48.0,83,30.07,8.0,Calm,Calm,-,N/A,,Clear,0,2013-05-11 04:53:00